Location: Barrialote
(9.9333°N, 67.3500°W)
Time: 15:16:14
(UTC+00:00)

USA 229 - Pass Details

Date: 18 April 2024
Orbit: 890 x 1322 km, 63.4° (Epoch: 18 May)

Event Time Altitude Azimuth Distance (km) Brightness Sun altitude
Rises 23:15:10 0° 186° (S) 3,507 6.3 -9.3°
Reaches altitude 10° 23:17:51 10° 178° (S) 2,552 5.6 -9.9°
Maximum altitude 23:23:13 38° 112° (ESE) 1,338 3.8 -11.2°
Drops below altitude 10° 23:28:41 10° 45° (NE) 2,601 5.4 -12.5°
Sets 23:31:25 0° 38° (NE) 3,584 6.2 -13.2°
